"startDT [UTC]","vpos","CH4 [ppm]","stdev(CH4) [ppm]","CO2 [ppm]","stdev(CO2) [ppm]","H2O [ppm]","stdev(H2O)","p_LGR [torr]","T_LGR [C]","mt1_LGR [us]","mt2_LGR [us]","T_ECpre [C]","T_EC1 [C]","T_EC2 [C]","p_inlet [hPa]","p_in [hPa]","p_out [hPa]","T_inlet [C]","RH_inlet [%]","dwpt_inlet [C]","T_vent [C]","RH_vent [%]","dwpt_vent [C]","flow_vent [l min-1]","flow_inlet [l min-1]","dwpt_sample [C]","T_room [C]"
2012-07-31 00:00:00,0.0,1.9865,0.0028,385.55,0.30,144.6,32.8,138.01,33.41,24.65,36.46,1.02,-18.07,-25.17,-50,550,-929,28.3,25.6,6.8,28.3,1.3,-30.4,5.73,2.38,-26.5,31.8
2012-07-31 00:01:00,0.0,1.9842,0.0024,385.21,0.34,145.1,30.6,138.01,33.40,24.65,36.47,1.07,-18.71,-25.18,-49,550,-929,28.3,25.7,6.8,28.3,1.3,-30.4,5.73,2.38,-26.5,31.7
2012-07-31 00:02:00,0.0,1.9889,0.0010,385.44,0.33,151.4,33.1,138.01,33.40,24.65,36.48,1.07,-19.30,-25.19,-49,550,-929,28.3,25.8,6.9,28.2,1.3,-30.4,5.73,2.37,-26.5,31.7
2012-07-31 00:03:00,0.0,1.9906,0.0011,385.69,0.33,151.7,33.1,138.01,33.40,24.65,36.46,1.00,-19.86,-25.20,-49,550,-929,28.3,26.1,7.0,28.2,1.3,-30.4,5.73,2.38,-26.5,31.7
2012-07-31 00:04:00,0.0,1.9913,0.0014,385.59,0.34,144.4,28.2,138.01,33.40,24.65,36.47,1.01,-20.39,-25.20,-49,550,-928,28.3,26.2,7.1,28.2,1.3,-30.5,5.73,2.38,-26.6,31.7
2012-07-31 00:05:00,0.0,1.9954,0.0011,385.75,0.31,149.6,24.8,138.01,33.40,24.65,36.47,1.08,-20.92,-25.21,-49,550,-928,28.3,26.3,7.1,28.2,1.3,-30.4,5.73,2.39,-26.5,31.6
2012-07-31 00:06:00,0.0,1.9979,0.0011,385.70,0.31,145.5,24.5,138.01,33.40,24.65,36.47,1.07,-21.41,-25.23,-49,550,-928,28.3,26.5,7.3,28.2,1.3,-30.5,5.73,2.39,-26.6,31.7
2012-07-31 00:07:00,0.0,1.9983,0.0011,385.75,0.29,149.2,31.3,138.01,33.39,24.65,36.47,0.98,-21.88,-25.24,-49,550,-928,28.3,26.5,7.3,28.2,1.3,-30.4,5.73,2.39,-26.6,31.7
2012-07-31 00:08:00,0.0,1.9982,0.0011,385.74,0.33,147.9,27.1,138.01,33.39,24.65,36.47,1.01,-22.32,-25.25,-49,550,-928,28.3,26.7,7.3,28.2,1.3,-30.4,5.73,2.38,-26.6,31.7
2012-07-31 00:09:00,0.0,1.9936,0.0013,385.51,0.29,147.5,34.5,138.01,33.38,24.65,36.47,1.07,-22.72,-25.26,-49,550,-928,28.3,26.7,7.4,28.2,1.3,-30.5,5.73,2.37,-26.6,31.7
2012-07-31 00:10:00,0.0,1.9966,0.0013,385.58,0.31,145.8,29.8,138.01,33.38,24.65,36.47,1.08,-23.11,-25.27,-50,550,-928,28.3,26.5,7.2,28.2,1.3,-30.4,5.73,2.37,-26.6,31.8
2012-07-31 00:11:00,0.0,1.9963,0.0027,385.43,0.30,147.8,34.2,138.01,33.38,24.65,36.47,1.00,-23.47,-25.28,-50,550,-928,28.3,26.5,7.2,28.2,1.3,-30.5,5.73,2.37,-26.6,31.7
2012-07-31 00:12:00,0.0,1.9953,0.0028,385.56,0.26,141.6,30.1,138.01,33.37,24.65,36.47,0.99,-23.82,-25.29,-50,550,-928,28.3,26.2,7.1,28.2,1.2,-30.7,5.73,2.38,-26.6,31.7
2012-07-31 00:13:00,0.0,1.9997,0.0013,385.78,0.29,152.0,32.4,138.01,33.37,24.65,36.46,1.04,-24.14,-25.30,-49,550,-928,28.3,26.3,7.1,28.2,1.2,-30.7,5.73,2.39,-26.6,31.7
2012-07-31 00:14:00,0.0,1.9995,0.0020,385.65,0.29,144.6,36.2,138.01,33.37,24.65,36.47,1.08,-24.44,-25.33,-49,550,-928,28.3,26.3,7.1,28.2,1.2,-30.7,5.73,2.39,-26.6,31.7
2012-07-31 00:15:00,0.0,2.0051,0.0022,385.85,0.35,141.7,31.8,138.01,33.36,24.65,36.47,1.01,-24.73,-25.33,-49,550,-928,28.3,26.3,7.1,28.2,1.2,-30.7,5.73,2.39,-26.6,31.6
2012-07-31 00:16:00,0.0,2.0053,0.0010,385.84,0.30,137.7,26.1,138.01,33.36,24.65,36.47,0.98,-25.00,-25.34,-49,550,-928,28.3,26.5,7.2,28.2,1.2,-30.6,5.73,2.37,-26.6,31.7
2012-07-31 00:17:00,0.0,2.0083,0.0016,385.95,0.27,146.1,30.9,138.01,33.36,24.65,36.47,1.03,-25.26,-25.36,-49,550,-928,28.3,26.4,7.2,28.2,1.2,-30.6,5.73,2.37,-26.6,31.8
2012-07-31 00:18:00,0.0,2.0102,0.0011,386.01,0.31,154.4,36.0,138.01,33.36,24.65,36.47,1.04,-25.12,-25.36,-49,550,-928,28.3,26.5,7.2,28.2,1.2,-30.6,5.73,2.38,-26.6,31.7
2012-07-31 00:19:00,0.0,2.0093,0.0014,385.99,0.30,149.5,28.6,138.01,33.35,24.65,36.47,1.07,-25.09,-25.38,-49,550,-928,28.3,26.6,7.2,28.2,1.2,-30.6,5.73,2.39,-26.6,31.7
2012-07-31 00:20:00,0.0,2.0133,0.0012,386.12,0.29,151.8,29.9,138.01,33.35,24.65,36.47,0.99,-25.29,-25.39,-49,550,-928,28.3,26.6,7.2,28.2,1.3,-30.3,5.73,2.39,-26.6,31.7
2012-07-31 00:21:00,0.0,2.0144,0.0010,386.09,0.27,144.2,31.1,138.01,33.35,24.65,36.48,1.04,-25.18,-25.40,-49,550,-928,28.3,26.7,7.3,28.2,1.2,-30.6,5.73,2.39,-26.6,31.7
2012-07-31 00:22:00,0.0,2.0120,0.0010,386.12,0.29,143.7,33.0,138.01,33.35,24.65,36.47,0.99,-25.11,-25.42,-49,550,-928,28.3,26.7,7.3,28.2,1.3,-30.5,5.73,2.38,-26.6,31.7
2012-07-31 00:23:00,0.0,2.0133,0.0010,386.10,0.29,144.5,33.3,138.01,33.34,24.65,36.48,1.04,-25.31,-25.43,-49,550,-928,28.3,26.7,7.3,28.2,1.3,-30.5,5.73,2.38,-26.6,31.7
2012-07-31 00:24:00,0.0,2.0154,0.0010,386.16,0.31,149.4,34.9,138.01,33.34,24.65,36.47,0.97,-25.26,-25.45,-49,550,-928,28.3,26.8,7.3,28.2,1.3,-30.5,5.73,2.37,-26.6,31.6
2012-07-31 00:25:00,0.0,2.0130,0.0022,386.18,0.27,146.6,29.1,138.01,33.34,24.65,36.47,1.07,-25.14,-25.46,-49,550,-928,28.3,26.9,7.4,28.2,1.3,-30.4,5.73,2.37,-26.6,31.6
2012-07-31 00:26:00,0.0,2.0106,0.0013,386.11,0.32,145.7,33.7,138.01,33.33,24.65,36.47,1.00,-25.33,-25.47,-49,550,-928,28.3,26.9,7.4,28.2,1.3,-30.2,5.73,2.38,-26.6,31.6
2012-07-31 00:27:00,0.0,2.0101,0.0012,386.15,0.25,143.4,29.1,138.01,33.33,24.65,36.47,1.00,-25.32,-25.48,-49,550,-928,28.3,26.9,7.4,28.2,1.3,-30.3,5.73,2.38,-26.6,31.7
2012-07-31 00:28:00,0.0,2.0105,0.0009,386.17,0.31,144.5,29.5,138.01,33.33,24.65,36.47,1.00,-25.16,-25.49,-49,550,-928,28.3,27.0,7.5,28.2,1.3,-30.3,5.73,2.39,-26.6,31.6
2012-07-31 00:29:00,0.0,2.0113,0.0010,386.25,0.32,145.8,32.9,138.01,33.32,24.65,36.47,1.05,-25.34,-25.50,-49,550,-928,28.3,27.1,7.5,28.2,1.3,-30.3,5.73,2.39,-26.6,31.7
2012-07-31 00:30:00,0.0,2.0091,0.0014,386.05,0.29,142.6,35.1,138.01,33.32,24.65,36.48,0.97,-25.39,-25.51,-49,550,-928,28.2,27.2,7.5,28.2,1.3,-30.3,5.73,2.38,-26.6,31.7
2012-07-31 00:31:00,0.0,2.0087,0.0009,386.05,0.33,142.7,24.7,138.01,33.32,24.65,36.47,1.06,-25.19,-25.52,-49,550,-928,28.2,27.3,7.6,28.2,1.3,-30.3,5.73,2.37,-26.6,31.7
2012-07-31 00:32:00,0.0,2.0038,0.0041,385.94,0.33,140.7,29.6,138.02,33.31,24.65,36.47,1.04,-25.35,-25.53,-49,550,-928,28.2,27.4,7.7,28.2,1.3,-30.2,5.73,2.37,-26.6,31.7
2012-07-31 00:33:00,0.0,1.9911,0.0026,385.71,0.31,146.6,32.6,138.02,33.31,24.65,36.47,0.90,-25.44,-25.53,-49,550,-928,28.2,27.6,7.8,28.2,1.3,-30.1,5.73,2.37,-26.6,31.7
2012-07-31 00:34:00,0.0,1.9844,0.0024,385.53,0.24,143.1,32.7,138.02,33.31,24.65,36.47,0.97,-25.23,-24.74,-49,550,-928,28.2,27.8,7.9,28.2,1.3,-29.9,5.73,2.39,-26.6,31.7
2012-07-31 00:35:00,0.0,1.9825,0.0010,385.49,0.29,147.4,25.4,138.02,33.30,24.65,36.47,0.97,-25.35,-22.92,-49,550,-927,28.2,27.8,7.9,28.2,1.5,-28.8,5.73,2.39,-26.6,31.7
2012-07-31 00:36:00,0.0,1.9821,0.0009,385.71,0.28,143.2,26.3,138.01,33.30,24.65,36.46,0.92,-25.46,-20.95,-49,550,-927,28.2,27.6,7.8,28.2,1.6,-27.8,5.73,2.39,-26.6,31.6
2012-07-31 00:37:00,0.0,1.9811,0.0009,385.49,0.30,134.4,31.2,138.02,33.30,24.65,36.47,0.85,-25.55,-19.01,-49,550,-927,28.2,27.5,7.7,28.2,1.7,-27.2,5.73,2.39,-26.6,31.6
2012-07-31 00:38:00,0.0,1.9815,0.0009,385.55,0.35,144.2,30.3,138.01,33.30,24.65,36.47,0.85,-25.61,-17.18,-49,550,-927,28.2,27.6,7.7,28.2,1.7,-27.1,5.73,2.38,-26.7,31.6
2012-07-31 00:39:00,0.0,1.9815,0.0010,385.44,0.31,134.8,27.8,138.02,33.30,24.65,36.48,0.90,-25.65,-15.42,-49,550,-927,28.2,27.4,7.6,28.2,1.7,-27.2,5.73,2.37,-26.6,31.6
2012-07-31 00:40:00,0.0,1.9805,0.0013,385.44,0.27,134.8,25.1,138.01,33.29,24.65,36.47,0.91,-25.68,-13.76,-49,550,-927,28.2,27.5,7.7,28.2,1.7,-27.3,5.73,2.38,-26.7,31.6
2012-07-31 00:41:00,0.0,1.9792,0.0011,385.39,0.29,139.7,33.8,138.01,33.29,24.65,36.48,0.94,-25.71,-12.20,-49,550,-927,28.2,27.5,7.7,28.2,1.7,-27.5,5.73,2.39,-26.6,31.7
2012-07-31 00:42:00,0.0,1.9775,0.0013,385.44,0.30,135.0,29.5,138.01,33.29,24.65,36.47,0.96,-25.73,-10.71,-49,550,-927,28.2,27.4,7.6,28.2,1.6,-27.8,5.73,2.39,-26.6,31.7
2012-07-31 00:43:00,0.0,1.9746,0.0014,385.45,0.27,138.7,28.5,138.01,33.28,24.65,36.46,0.92,-25.74,-9.31,-49,550,-927,28.2,27.4,7.6,28.2,1.6,-27.9,5.73,2.39,-26.6,31.6
2012-07-31 00:44:00,0.0,1.9714,0.0008,385.26,0.30,146.8,33.8,138.02,33.28,24.65,36.47,0.89,-25.75,-7.97,-49,550,-927,28.2,27.5,7.7,28.2,1.6,-28.0,5.73,2.38,-26.6,31.6
2012-07-31 00:45:00,0.0,1.9709,0.0010,385.24,0.27,141.3,25.6,138.01,33.28,24.65,36.47,0.88,-25.76,-6.72,-49,550,-927,28.2,27.5,7.7,28.2,1.6,-28.2,5.73,2.38,-26.6,31.6
2012-07-31 00:46:00,0.0,1.9697,0.0011,385.20,0.28,138.6,31.2,138.01,33.27,24.65,36.47,0.89,-25.77,-5.52,-49,550,-927,28.2,27.6,7.7,28.2,1.6,-28.3,5.73,2.38,-26.6,31.6
2012-07-31 00:47:00,0.0,1.9686,0.0013,385.21,0.25,138.7,31.4,138.02,33.27,24.65,36.47,0.90,-25.77,-4.38,-49,550,-927,28.2,27.5,7.7,28.2,1.5,-28.4,5.73,2.39,-26.6,31.6
2012-07-31 00:48:00,0.0,1.9686,0.0010,385.23,0.32,143.6,29.4,138.02,33.27,24.65,36.47,0.93,-25.79,-3.31,-49,550,-927,28.2,27.4,7.6,28.2,1.5,-28.5,5.73,2.39,-26.6,31.7
2012-07-31 00:49:00,0.0,1.9680,0.0009,385.20,0.27,141.6,33.7,138.02,33.27,24.65,36.47,0.94,-25.79,-2.28,-49,550,-927,28.2,27.4,7.6,28.2,1.5,-28.6,5.73,2.40,-26.6,31.6
2012-07-31 00:50:00,0.0,1.9687,0.0009,385.18,0.29,147.5,29.2,138.02,33.26,24.65,36.47,0.95,-25.79,-1.31,-49,550,-927,28.2,27.4,7.6,28.2,1.5,-28.7,5.73,2.39,-26.6,31.7
2012-07-31 00:51:00,0.0,1.9690,0.0009,385.26,0.31,140.8,31.6,138.02,33.26,24.65,36.47,0.96,-25.80,-0.39,-49,550,-927,28.2,27.4,7.6,28.2,1.5,-28.7,5.73,2.38,-26.5,31.7
2012-07-31 00:52:00,0.0,1.9694,0.0009,385.38,0.28,146.3,28.6,138.02,33.26,24.65,36.47,0.96,-25.79,0.48,-49,550,-927,28.2,27.5,7.7,28.2,1.5,-28.8,5.73,2.38,-26.5,31.6
2012-07-31 00:53:00,0.0,1.9699,0.0009,385.43,0.27,138.4,30.8,138.02,33.25,24.65,36.47,0.93,-25.80,1.30,-49,550,-927,28.2,27.6,7.7,28.2,1.5,-28.9,5.73,2.39,-26.5,31.6
2012-07-31 00:54:00,0.0,1.9704,0.0008,385.29,0.34,140.0,34.2,138.02,33.25,24.65,36.48,0.92,-25.80,2.07,-49,550,-927,28.2,27.7,7.8,28.2,1.5,-29.0,5.73,2.40,-26.5,31.6
2012-07-31 00:55:00,0.0,1.9707,0.0011,385.58,0.34,148.0,29.8,138.02,33.25,24.65,36.47,0.90,-25.80,2.73,-49,550,-927,28.2,27.8,7.8,28.1,1.5,-29.0,5.73,2.41,-26.5,31.6
2012-07-31 00:56:00,0.0,1.9706,0.0008,385.49,0.28,139.4,27.3,138.02,33.24,24.65,36.47,0.88,-25.80,3.15,-49,550,-927,28.2,27.8,7.9,28.1,1.5,-29.0,5.73,2.41,-26.5,31.6
2012-07-31 00:57:00,0.0,1.9707,0.0010,385.46,0.36,146.5,26.7,138.02,33.24,24.65,36.47,0.91,-25.80,3.34,-49,550,-927,28.2,27.7,7.8,28.1,1.4,-29.2,5.73,2.40,-26.5,31.6
2012-07-31 00:58:00,0.0,1.9698,0.0012,385.56,0.31,150.9,35.2,138.02,33.23,24.65,36.47,0.93,-25.80,3.61,-49,550,-927,28.2,27.6,7.7,28.1,1.4,-29.2,5.73,2.40,-26.5,31.6
2012-07-31 00:59:00,0.0,1.9697,0.0012,385.58,0.30,145.8,29.8,138.02,33.23,24.65,36.47,0.94,-25.80,4.03,-49,550,-927,28.2,27.8,7.8,28.1,1.4,-29.2,5.73,2.39,-26.5,31.6
2012-07-31 01:00:00,0.0,1.9701,0.0011,385.45,0.30,146.1,29.7,138.02,33.23,24.65,36.47,0.93,-25.79,4.60,-49,550,-927,28.2,27.9,7.9,28.1,1.4,-29.2,5.73,2.39,-26.5,31.6
2012-07-31 01:01:00,0.0,1.9660,0.0018,385.75,0.33,152.2,29.7,138.02,33.22,24.65,36.47,0.95,-25.79,5.16,-49,550,-927,28.1,27.8,7.8,28.1,1.4,-29.2,5.73,2.40,-26.5,31.5
2012-07-31 01:02:00,0.0,1.9604,0.0015,385.80,0.29,143.7,30.8,138.02,33.22,24.65,36.47,0.96,-25.79,5.70,-49,550,-927,28.2,27.9,7.8,28.1,1.4,-29.2,5.73,2.40,-26.5,31.5
2012-07-31 01:03:00,0.0,1.9588,0.0010,385.80,0.29,145.8,32.3,138.02,33.22,24.65,36.46,0.96,-25.78,6.21,-49,550,-927,28.1,28.0,7.9,28.1,1.4,-29.2,5.73,2.41,-26.5,31.5
2012-07-31 01:04:00,0.0,1.9575,0.0012,385.69,0.26,150.3,31.7,138.02,33.21,24.65,36.47,0.96,-25.78,6.71,-49,550,-927,28.1,27.8,7.8,28.1,1.4,-29.2,5.73,2.41,-26.5,31.5
2012-07-31 01:05:00,0.0,1.9556,0.0012,385.77,0.33,146.1,30.9,138.02,33.21,24.65,36.47,0.96,-25.78,7.18,-49,550,-927,28.1,27.7,7.7,28.1,1.4,-29.2,5.73,2.40,-26.5,31.5
2012-07-31 01:06:00,0.0,1.9538,0.0016,385.62,0.35,141.5,31.8,138.02,33.20,24.65,36.47,0.95,-25.77,7.64,-49,550,-927,28.1,27.6,7.7,28.1,1.4,-29.4,5.73,2.39,-26.5,31.5
2012-07-31 01:07:00,0.0,1.9516,0.0010,385.72,0.30,148.9,29.4,138.02,33.20,24.65,36.47,0.94,-25.77,8.09,-49,550,-927,28.1,27.4,7.6,28.1,1.4,-29.5,5.73,2.39,-26.5,31.5
2012-07-31 01:08:00,0.0,1.9501,0.0023,385.69,0.34,145.6,28.2,138.02,33.19,24.65,36.47,0.92,-25.77,8.51,-49,550,-927,28.1,27.4,7.6,28.1,1.4,-29.4,5.73,2.39,-26.5,31.5
2012-07-31 01:09:00,0.0,1.9466,0.0013,385.86,0.30,157.1,33.7,138.02,33.19,24.65,36.47,0.92,-25.76,8.92,-49,550,-927,28.1,27.3,7.5,28.1,1.4,-29.5,5.73,2.40,-26.5,31.5
2012-07-31 01:10:00,0.0,1.9454,0.0010,385.86,0.29,148.8,32.1,138.02,33.19,24.65,36.47,0.92,-25.75,9.32,-49,550,-927,28.1,27.3,7.5,28.1,1.4,-29.4,5.73,2.41,-26.5,31.5
2012-07-31 01:11:00,0.0,1.9433,0.0011,385.88,0.25,144.6,33.8,138.02,33.18,24.65,36.47,0.93,-25.75,9.71,-49,550,-927,28.1,27.3,7.5,28.1,1.4,-29.4,5.73,2.41,-26.5,31.5
2012-07-31 01:12:00,0.0,1.9424,0.0009,385.89,0.32,146.4,36.7,138.02,33.18,24.65,36.47,0.93,-25.75,10.09,-49,550,-927,28.1,27.2,7.5,28.1,1.4,-29.4,5.73,2.40,-26.5,31.6
2012-07-31 01:13:00,0.0,1.9415,0.0012,385.86,0.28,141.2,31.6,138.02,33.18,24.65,36.47,0.92,-25.74,10.45,-49,549,-927,28.1,27.0,7.4,28.1,1.4,-29.4,5.73,2.39,-26.5,31.5
2012-07-31 01:14:00,0.0,1.9406,0.0010,385.87,0.33,144.9,26.6,138.02,33.18,24.65,36.48,0.94,-25.74,10.81,-49,549,-927,28.1,26.9,7.3,28.1,1.4,-29.4,5.73,2.39,-26.5,31.5
2012-07-31 01:15:00,0.0,1.9404,0.0012,385.87,0.33,146.8,26.1,138.02,33.17,24.65,36.47,0.95,-25.74,11.15,-49,550,-927,28.1,27.0,7.3,28.1,1.4,-29.4,5.73,2.39,-26.5,31.6
2012-07-31 01:16:00,0.0,1.9393,0.0010,385.86,0.32,149.8,33.2,138.02,33.17,24.65,36.47,0.95,-25.74,11.49,-49,549,-927,28.1,26.9,7.3,28.1,1.4,-29.4,5.73,2.40,-26.5,31.6
2012-07-31 01:17:00,0.0,1.9385,0.0009,385.86,0.30,142.8,29.1,138.02,33.16,24.65,36.47,0.95,-25.73,11.81,-49,550,-927,28.1,26.9,7.3,28.1,1.4,-29.5,5.73,2.41,-26.5,31.5
2012-07-31 01:18:00,0.0,1.9372,0.0010,385.87,0.30,151.3,26.8,138.02,33.16,24.65,36.48,0.95,-25.74,12.11,-49,550,-927,28.1,26.8,7.3,28.0,1.4,-29.4,5.73,2.41,-26.5,31.5
2012-07-31 01:19:00,0.0,1.9356,0.0009,385.99,0.29,149.4,29.4,138.02,33.16,24.65,36.47,0.96,-25.73,12.41,-49,549,-927,28.1,26.9,7.3,28.0,1.4,-29.5,5.73,2.41,-26.5,31.5
2012-07-31 01:20:00,0.0,1.9348,0.0010,385.92,0.28,138.7,28.2,138.02,33.15,24.65,36.48,0.95,-25.72,12.70,-49,549,-927,28.1,26.8,7.2,28.0,1.4,-29.5,5.73,2.40,-26.5,31.5
2012-07-31 01:21:00,0.0,1.9330,0.0012,385.93,0.27,142.8,32.6,138.02,33.15,24.65,36.48,0.96,-25.71,12.98,-49,549,-927,28.1,26.8,7.2,28.0,1.4,-29.4,5.73,2.39,-26.5,31.4
2012-07-31 01:22:00,0.0,1.9301,0.0011,385.99,0.27,144.2,29.1,138.02,33.15,24.65,36.48,0.97,-25.71,13.25,-49,550,-927,28.1,26.8,7.2,28.0,1.4,-29.5,5.73,2.39,-26.5,31.5
2012-07-31 01:23:00,0.0,1.9311,0.0011,385.92,0.35,133.4,24.9,138.02,33.15,24.65,36.48,0.96,-25.71,13.50,-49,549,-927,28.1,26.6,7.1,28.0,1.4,-29.5,5.73,2.40,-26.5,31.5
2012-07-31 01:24:00,0.0,1.9303,0.0010,385.96,0.26,141.1,28.8,138.02,33.14,24.66,36.48,0.95,-25.70,13.75,-49,549,-927,28.1,26.5,7.0,28.0,1.4,-29.5,5.73,2.41,-26.5,31.5
2012-07-31 01:25:00,0.0,1.9296,0.0009,386.12,0.33,140.2,30.1,138.02,33.14,24.65,36.48,0.96,-25.70,13.98,-49,549,-927,28.1,26.5,7.0,28.0,1.4,-29.5,5.73,2.41,-26.5,31.5
2012-07-31 01:26:00,0.0,1.9303,0.0008,386.00,0.28,140.3,31.2,138.02,33.13,24.65,36.47,0.95,-25.70,14.21,-49,549,-927,28.1,26.7,7.1,28.0,1.4,-29.5,5.73,2.41,-26.5,31.5
2012-07-31 01:27:00,0.0,1.9305,0.0010,386.02,0.25,147.5,35.6,138.02,33.13,24.65,36.48,0.96,-25.70,14.43,-49,549,-927,28.1,26.6,7.1,28.0,1.4,-29.5,5.73,2.41,-26.5,31.5
2012-07-31 01:28:00,0.0,1.9303,0.0011,385.93,0.30,140.5,31.6,138.02,33.12,24.65,36.48,0.96,-25.69,14.63,-49,549,-927,28.1,26.4,7.0,28.0,1.4,-29.5,5.73,2.40,-26.5,31.5
2012-07-31 01:29:00,0.0,1.9293,0.0009,385.99,0.27,137.2,28.6,138.02,33.12,24.66,36.48,0.95,-25.69,14.83,-49,549,-927,28.1,26.4,7.0,28.0,1.4,-29.5,5.73,2.39,-26.5,31.5
2012-07-31 01:30:00,0.0,1.9302,0.0010,385.95,0.32,141.7,30.0,138.02,33.11,24.65,36.48,0.95,-25.69,15.02,-49,549,-927,28.1,26.4,7.0,28.0,1.4,-29.5,5.73,2.39,-26.5,31.4
2012-07-31 01:31:00,0.0,1.9306,0.0011,386.04,0.28,139.1,30.8,138.02,33.11,24.65,36.47,0.94,-25.68,15.21,-49,549,-927,28.1,26.4,7.0,28.0,1.4,-29.5,5.73,2.40,-26.5,31.4
2012-07-31 01:32:00,0.0,1.9309,0.0009,386.06,0.25,142.3,27.3,138.02,33.10,24.65,36.47,0.92,-25.68,15.38,-49,549,-927,28.1,26.5,7.0,28.0,1.4,-29.5,5.73,2.41,-26.5,31.5
2012-07-31 01:33:00,0.0,1.9313,0.0008,385.92,0.27,145.3,31.1,138.02,33.10,24.65,36.48,0.94,-25.67,15.55,-49,549,-927,28.0,26.5,7.0,28.0,1.4,-29.5,5.73,2.41,-26.5,31.5
2012-07-31 01:34:00,0.0,1.9315,0.0009,386.06,0.27,140.8,25.6,138.02,33.09,24.65,36.46,0.94,-25.67,15.71,-49,549,-927,28.0,26.4,6.9,28.0,1.4,-29.5,5.73,2.41,-26.5,31.5
2012-07-31 01:35:00,0.0,1.9318,0.0009,386.10,0.35,141.5,32.2,138.02,33.09,24.65,36.47,0.95,-25.67,15.86,-49,549,-927,28.0,26.3,6.9,28.0,1.4,-29.5,5.73,2.41,-26.5,31.4
2012-07-31 01:36:00,0.0,1.9327,0.0009,385.99,0.28,127.9,34.3,138.02,33.08,24.65,36.48,0.96,-25.66,16.01,-49,549,-927,28.0,26.4,6.9,28.0,1.4,-29.5,5.73,2.40,-26.5,31.4
2012-07-31 01:37:00,0.0,1.9327,0.0008,386.07,0.28,140.2,32.7,138.02,33.08,24.66,36.48,0.95,-25.66,16.15,-49,549,-927,28.0,26.4,6.9,28.0,1.4,-29.5,5.73,2.40,-26.5,31.5
2012-07-31 01:38:00,0.0,1.9336,0.0009,386.02,0.25,139.6,29.3,138.02,33.07,24.65,36.48,0.94,-25.65,16.28,-49,549,-927,28.1,26.3,6.9,28.0,1.4,-29.5,5.73,2.40,-26.5,31.5
2012-07-31 01:39:00,0.0,1.9343,0.0009,385.93,0.27,130.7,24.7,138.02,33.07,24.65,36.48,0.96,-25.65,16.41,-49,549,-927,28.0,26.2,6.8,28.0,1.4,-29.5,5.73,2.40,-26.5,31.5
2012-07-31 01:40:00,0.0,1.9345,0.0009,386.12,0.33,135.0,32.0,138.02,33.06,24.65,36.47,0.94,-25.65,16.53,-49,549,-927,28.0,26.2,6.8,28.0,1.4,-29.5,5.73,2.41,-26.5,31.5
2012-07-31 01:41:00,0.0,1.9348,0.0011,386.11,0.25,136.9,31.7,138.02,33.06,24.65,36.48,0.95,-25.65,16.64,-49,549,-927,28.0,26.2,6.8,28.0,1.4,-29.5,5.73,2.41,-26.5,31.5
2012-07-31 01:42:00,0.0,1.9361,0.0011,386.15,0.24,138.0,31.8,138.02,33.06,24.65,36.48,0.96,-25.65,16.76,-49,549,-927,28.0,26.4,6.9,28.0,1.4,-29.5,5.73,2.41,-26.5,31.4
2012-07-31 01:43:00,0.0,1.9371,0.0008,386.15,0.29,134.1,31.6,138.02,33.06,24.66,36.48,0.95,-25.65,16.86,-49,549,-927,28.0,26.5,7.0,27.9,1.4,-29.5,5.73,2.41,-26.5,31.4
2012-07-31 01:44:00,0.0,1.9374,0.0010,386.18,0.28,132.1,30.8,138.02,33.05,24.66,36.48,0.95,-25.65,16.97,-49,549,-927,28.0,26.3,6.9,27.9,1.4,-29.5,5.73,2.40,-26.5,31.4
2012-07-31 01:45:00,0.0,1.9381,0.0011,386.24,0.27,132.5,32.2,138.02,33.05,24.65,36.48,0.96,-25.65,17.07,-49,549,-927,28.0,26.3,6.9,27.9,1.4,-29.5,5.73,2.40,-26.5,31.4
2012-07-31 01:46:00,0.0,1.9390,0.0011,386.49,0.34,133.6,24.0,138.02,33.05,24.65,36.47,0.96,-25.65,17.16,-49,549,-927,28.0,26.4,6.9,27.9,1.4,-29.5,5.73,2.40,-26.5,31.3
2012-07-31 01:47:00,0.0,1.9401,0.0009,386.43,0.34,138.6,33.1,138.02,33.04,24.65,36.48,0.95,-25.64,17.25,-49,549,-927,28.0,26.5,6.9,27.9,1.4,-29.5,5.73,2.40,-26.5,31.3
2012-07-31 01:48:00,0.0,1.9399,0.0009,386.43,0.28,137.9,30.8,138.02,33.04,24.65,36.47,0.95,-25.64,17.33,-49,549,-927,28.0,26.5,6.9,27.9,1.4,-29.5,5.73,2.41,-26.5,31.4
2012-07-31 01:49:00,0.0,1.9404,0.0010,386.37,0.35,136.9,33.8,138.02,33.04,24.65,36.48,0.96,-25.64,17.41,-49,549,-927,28.0,26.5,7.0,27.9,1.4,-29.5,5.73,2.42,-26.5,31.4
2012-07-31 01:50:00,0.0,1.9407,0.0009,386.36,0.32,137.0,29.4,138.02,33.03,24.65,36.48,0.95,-25.64,17.49,-49,549,-927,28.0,26.6,7.0,27.9,1.4,-29.6,5.73,2.42,-26.5,31.4
2012-07-31 01:51:00,0.0,1.9422,0.0010,386.54,0.30,132.1,26.7,138.02,33.03,24.65,36.48,0.95,-25.63,17.57,-49,549,-927,28.0,26.7,7.0,27.9,1.4,-29.5,5.73,2.41,-26.6,31.4
2012-07-31 01:52:00,0.0,1.9423,0.0009,386.49,0.30,133.0,30.4,138.02,33.02,24.65,36.48,0.96,-25.63,17.64,-49,549,-927,28.0,26.6,7.0,27.9,1.4,-29.5,5.73,2.41,-26.5,31.4
2012-07-31 01:53:00,0.0,1.9422,0.0009,386.56,0.29,131.8,33.9,138.02,33.02,24.65,36.47,0.95,-25.63,17.71,-49,549,-927,28.0,26.6,7.0,27.9,1.4,-29.5,5.73,2.40,-26.5,31.4
2012-07-31 01:54:00,0.0,1.9423,0.0010,386.69,0.27,131.4,32.0,138.02,33.02,24.65,36.47,0.96,-25.63,17.78,-49,549,-927,28.0,26.5,6.9,27.9,1.4,-29.5,5.73,2.40,-26.5,31.4
2012-07-31 01:55:00,0.0,1.9416,0.0009,386.72,0.27,131.0,35.0,138.02,33.01,24.66,36.48,0.97,-25.62,17.84,-49,549,-927,27.9,26.4,6.8,27.9,1.4,-29.5,5.73,2.40,-26.5,31.4
2012-07-31 01:56:00,0.0,1.9415,0.0008,386.55,0.31,126.2,31.5,138.02,33.01,24.65,36.48,0.96,-25.62,17.90,-49,549,-927,28.0,26.4,6.9,27.9,1.4,-29.5,5.73,2.41,-26.5,31.4
2012-07-31 01:57:00,0.0,1.9411,0.0011,386.60,0.28,129.0,25.9,138.02,33.00,24.66,36.48,0.96,-25.62,17.95,-49,549,-927,28.0,26.6,7.0,27.9,1.4,-29.5,5.73,2.42,-26.5,31.3
2012-07-31 01:58:00,0.0,1.9393,0.0010,386.67,0.28,126.5,27.1,138.02,33.00,24.65,36.48,0.96,-25.62,18.01,-49,549,-927,27.9,26.5,6.9,27.9,1.4,-29.6,5.73,2.42,-26.6,31.4
2012-07-31 01:59:00,0.0,1.9389,0.0010,386.70,0.27,129.9,28.2,138.02,32.99,24.65,36.48,0.96,-25.62,18.07,-49,549,-927,27.9,26.4,6.8,27.9,1.4,-29.6,5.73,2.41,-26.5,31.5
2012-07-31 02:00:00,0.0,1.9379,0.0012,386.54,0.29,126.7,26.6,138.03,32.99,24.65,36.49,0.96,-25.62,18.11,-49,549,-927,27.9,26.3,6.8,27.9,1.4,-29.5,5.73,2.41,-26.5,31.5
2012-07-31 02:01:00,0.0,1.9359,0.0009,386.67,0.28,133.4,36.6,138.02,32.99,24.65,36.47,0.96,-25.62,18.17,-49,549,-927,27.9,26.4,6.9,27.9,1.4,-29.6,5.73,2.40,-26.5,31.4
2012-07-31 02:02:00,0.0,1.9356,0.0010,386.57,0.30,127.5,29.1,138.03,32.98,24.65,36.48,0.97,-25.61,18.21,-49,549,-927,27.9,26.4,6.9,27.9,1.4,-29.5,5.73,2.40,-26.6,31.4
2012-07-31 02:03:00,0.0,1.9343,0.0010,386.55,0.33,130.8,27.9,138.02,32.98,24.65,36.48,0.96,-25.61,18.26,-49,549,-927,27.9,26.4,6.9,27.9,1.4,-29.5,5.73,2.40,-26.6,31.4
2012-07-31 02:04:00,0.0,1.9321,0.0012,386.53,0.32,131.6,30.2,138.02,32.97,24.65,36.48,0.97,-25.61,18.29,-49,549,-927,27.9,26.4,6.9,27.9,1.4,-29.6,5.73,2.41,-26.6,31.4
2012-07-31 02:05:00,0.0,1.9315,0.0010,386.57,0.30,135.1,31.8,138.02,32.97,24.65,36.48,0.95,-25.62,18.33,-49,549,-927,27.9,26.4,6.9,27.9,1.4,-29.5,5.73,2.41,-26.6,31.3
2012-07-31 02:06:00,0.0,1.9297,0.0012,386.50,0.32,120.2,31.2,138.02,32.97,24.65,36.47,0.94,-25.62,18.37,-49,549,-927,27.9,26.5,6.9,27.8,1.4,-29.6,5.73,2.42,-26.6,31.3
2012-07-31 02:07:00,0.0,1.9290,0.0010,386.57,0.36,129.3,30.5,138.02,32.96,24.65,36.47,0.95,-25.61,18.41,-49,549,-927,27.9,26.6,6.9,27.8,1.4,-29.5,5.73,2.42,-26.6,31.3
2012-07-31 02:08:00,0.0,1.9270,0.0012,386.35,0.30,134.8,27.6,138.02,32.96,24.65,36.48,0.95,-25.61,18.45,-49,549,-927,27.9,26.6,6.9,27.8,1.4,-29.6,5.73,2.41,-26.6,31.3
2012-07-31 02:09:00,0.0,1.9256,0.0010,386.44,0.33,128.3,33.2,138.02,32.95,24.65,36.47,0.96,-25.61,18.48,-49,549,-927,27.9,26.4,6.8,27.8,1.4,-29.6,5.73,2.41,-26.6,31.4
2012-07-31 02:10:00,0.0,1.9253,0.0008,386.42,0.31,125.3,29.4,138.02,32.95,24.65,36.47,0.95,-25.61,18.51,-49,549,-927,27.9,26.3,6.8,27.8,1.4,-29.6,5.73,2.40,-26.6,31.4
2012-07-31 02:11:00,0.0,1.9244,0.0009,386.43,0.31,127.9,28.6,138.02,32.95,24.65,36.48,0.96,-25.60,18.55,-49,549,-927,27.9,26.3,6.8,27.8,1.4,-29.6,5.73,2.40,-26.6,31.3
2012-07-31 02:12:00,0.0,1.9242,0.0007,386.34,0.32,122.4,31.8,138.02,32.94,24.65,36.48,0.96,-25.60,18.58,-49,549,-927,27.9,26.3,6.8,27.8,1.4,-29.6,5.73,2.40,-26.6,31.3
2012-07-31 02:13:00,0.0,1.9237,0.0009,386.16,0.29,121.3,29.0,138.02,32.94,24.65,36.48,0.94,-25.61,18.60,-49,549,-927,27.9,26.4,6.8,27.8,1.4,-29.5,5.73,2.41,-26.6,31.3
2012-07-31 02:14:00,0.0,1.9221,0.0013,386.21,0.31,120.4,29.2,138.02,32.93,24.65,36.48,0.94,-25.60,18.63,-49,549,-927,27.9,26.3,6.8,27.8,1.4,-29.6,5.73,2.42,-26.6,31.2
2012-07-31 02:15:00,0.0,1.9208,0.0008,386.16,0.29,126.5,29.6,138.02,32.93,24.65,36.48,0.95,-25.60,18.66,-49,549,-927,27.9,26.1,6.7,27.8,1.4,-29.6,5.73,2.42,-26.6,31.3
2012-07-31 02:16:00,0.0,1.9206,0.0010,386.22,0.33,126.1,26.2,138.02,32.92,24.65,36.47,0.97,-25.60,18.69,-49,549,-927,27.9,26.0,6.6,27.8,1.4,-29.6,5.73,2.42,-26.6,31.3
2012-07-31 02:17:00,0.0,1.9194,0.0011,386.28,0.26,122.1,34.0,138.03,32.92,24.65,36.48,0.95,-25.61,18.70,-49,549,-927,27.9,25.9,6.5,27.8,1.4,-29.6,5.73,2.41,-26.6,31.3
2012-07-31 02:18:00,0.0,1.9192,0.0010,386.37,0.26,115.1,32.5,138.02,32.91,24.65,36.47,0.95,-25.61,18.73,-49,549,-927,27.9,26.0,6.6,27.8,1.4,-29.6,5.73,2.41,-26.6,31.3
2012-07-31 02:19:00,0.0,1.9190,0.0010,386.24,0.34,120.7,29.5,138.02,32.91,24.65,36.48,0.94,-25.60,18.75,-49,549,-927,27.9,26.2,6.7,27.8,1.4,-29.6,5.73,2.40,-26.6,31.3
2012-07-31 02:20:00,0.0,1.9183,0.0011,386.21,0.25,114.0,37.4,138.02,32.90,24.65,36.48,0.96,-25.60,18.78,-49,549,-927,27.9,26.3,6.8,27.8,1.4,-29.7,5.73,2.40,-26.6,31.3